This demonstration page uses our WeatherBlox Daily Observations layout. Learn more.

Left ArrowRight Arrow

Hourly Observations for January 22, 2017

Temp ( °F °C ) Dew Point ( °F °C ) Humidity (%) Winds ( mph kmh ) Pressure ( in mb ) Visibility ( mi km ) Precip ( " mm )
12:30 am 00:30 Cloudy 50 10 49 9.4 96 96 NE 7 11 29.68 1005 8 13 0.02 0.51
12:41 am 00:41 Cloudy 51 10.6 49 9.4 92 92 N 7 11 29.68 1005 7 11 0.02 0.51
12:59 am 00:59 Cloudy with Light Rain 50 10 48 8.9 93 93 NNE 8 13 29.66 1004 4 6 0.04 1.02
1:08 am 01:08 Cloudy with Heavy Rain 50 10 48 8.9 93 93 NNE 9 15 29.65 1004 3 4 0.07 1.78
1:15 am 01:15 Cloudy with Heavy Rain 49 9.4 48 8.9 97 97 NNE 9 15 29.65 1004 2 2 0.17 4.32
1:32 am 01:32 Cloudy with Mist and Fog 49 9.4 48 8.9 97 97 NNE 5 7 29.65 1004 6 10 0.18 4.57
1:59 am 01:59 Cloudy with Mist and Fog 49 9.4 47 8.3 93 93 NE 9 15 29.63 1003 4 6 0.18 4.57
2:23 am 02:23 Cloudy with Mist and Fog 48 8.9 46 7.8 93 93 N 6 9 29.65 1004 3 5 0.00 0.00
2:44 am 02:44 Cloudy with Drizzle 48 8.9 46 7.8 93 93 N 7 11 29.65 1004 2 3 0.00 0.03
2:59 am 02:59 Cloudy with Drizzle 48 8.9 46 7.8 93 93 N 9 15 29.65 1004 2 2 0.00 0.03
3:59 am 03:59 Cloudy with Drizzle 49 9.4 48 8.9 97 97 N 7 11 29.64 1004 2 2 0.00 0.03
4:59 am 04:59 Cloudy with Drizzle 49 9.4 47 8.3 93 93 N 7 11 29.63 1004 1 2 0.00 0.03
5:13 am 05:13 Cloudy with Drizzle 49 9.4 47 8.3 93 93 N 7 11 29.62 1003 1 2 0.00 0.03
5:37 am 05:37 Cloudy with Drizzle 50 10 49 9.4 96 96 NNE 5 7 29.62 1003 1 2 0.00 0.03
5:59 am 05:59 Cloudy with Drizzle 50 10 49 9.4 96 96 N 8 13 29.62 1003 2 3 0.00 0.03
6:25 am 06:25 Cloudy with Drizzle 50 10 49 9.4 96 96 NW 3 6 29.65 1004 2 3 0.00 0.03
6:33 am 06:33 Cloudy with Drizzle 50 10 48 8.9 93 93 NNW 6 9 29.65 1004 3 5 0.00 0.03
6:57 am 06:57 Cloudy with Mist and Fog 52 11 48 9 88 88 NNW 3 6 29.65 1004 2 3 0.00 0.03
6:59 am 06:59 Cloudy with Mist and Fog 51 10.6 49 9.4 92 92 NNW 5 7 29.64 1004 2 3 0.00 0.03
7:59 am 07:59 Cloudy with Mist and Fog 51 10.6 50 10 96 96 N 3 6 29.66 1004 1 2 0.00 0.00
8:15 am 08:15 Cloudy with Fog 51 10.6 50 10 96 96 SW 3 6 29.68 1005 0 0 0.00 0.00
8:59 am 08:59 Cloudy with Fog 50 10 49 9.4 96 96 NW 5 7 29.66 1004 0 0 0.00 0.00
9:11 am 09:11 Mostly Cloudy with Fog 51 10.6 49 9.4 92 92 N 9 15 29.65 1004 0 0 0.00 0.00
9:26 am 09:26 Mostly Sunny N/A N/A N/A undefined N/A N/A N/A 0.00 0.00
9:51 am 09:51 Mostly Cloudy with Fog 51 10.6 50 10 96 96 Calm 29.68 1005 0 0 0.00 0.00
9:59 am 09:59 Mostly Cloudy with Fog 51 10.6 50 10 96 96 Calm 29.68 1005 0 0 0.00 0.00
10:36 am 10:36 Cloudy with Fog 51 10.6 49 9.4 92 92 WSW 5 7 29.68 1005 0 0 0.00 0.00
10:59 am 10:59 Cloudy with Fog 50 10 48 8.9 93 93 W 8 13 29.66 1004 1 1 0.00 0.00
11:04 am 11:04 Mostly Cloudy with Fog 50 10 48 8.9 93 93 WNW 7 11 29.65 1004 0 0 0.00 0.00
11:48 am 11:48 Cloudy with Fog 51 10.6 50 10 96 96 NW 7 11 29.62 1003 0 0 0.00 0.00
11:59 am 11:59 Cloudy with Fog 52 11.1 51 10.6 97 97 NW 9 15 29.62 1003 0 0 0.00 0.00
12:42 pm 12:42 Cloudy with Fog 52 11.1 50 10 93 93 WNW 3 6 29.59 1002 0 0 0.00 0.00
12:52 pm 12:52 Cloudy with Fog 52 11.1 50 10 93 93 N 3 6 29.59 1002 0 0 0.00 0.00
12:59 pm 12:59 Cloudy with Fog 52 11.1 51 10.6 97 97 VRB 3 6 29.58 1002 0 0 0.00 0.00
1:24 pm 13:24 Cloudy with Mist and Fog 52 11.1 51 10.6 97 97 NNE 5 7 29.56 1001 1 2 0.00 0.00
1:43 pm 13:43 Cloudy with Mist and Fog 52 11.1 50 10 93 93 NE 10 17 29.53 1000 2 2 0.00 0.00
1:51 pm 13:51 Cloudy with Mist and Fog 51 10.6 49 9.4 92 92 NNE 12 19 29.53 1000 1 1 0.00 0.00
1:54 pm 13:54 Cloudy with Fog 52 11 48 9 88 88 NNE 8 13 29.53 1000 0 0 0.00 0.00
1:59 pm 13:59 Cloudy with Fog 50 10 49 9.4 96 96 NNE 6 9 29.55 1001 0 0 0.00 0.00
2:43 pm 14:43 Cloudy with Mist and Fog 50 10 49 9.4 96 96 Calm 29.59 1002 1 2 0.00 0.00
2:59 pm 14:59 Cloudy with Mist and Fog 51 10.6 48 8.9 89 89 NNW 3 6 29.60 1002 2 2 0.00 0.00
3:14 pm 15:14 Cloudy with Mist and Fog 51 10.6 49 9.4 92 92 NNE 6 9 29.59 1002 1 2 0.00 0.00
3:46 pm 15:46 Cloudy with Fog 51 10.6 49 9.4 92 92 NNW 6 9 29.59 1002 1 1 0.00 0.00
3:59 pm 15:59 Cloudy with Fog 51 10.6 49 9.4 92 92 NNW 5 7 29.59 1002 1 1 0.00 0.00
4:39 pm 16:39 Cloudy with Mist and Fog 51 10.6 49 9.4 92 92 NNE 9 15 29.59 1002 1 1 0.00 0.00
4:59 pm 16:59 Cloudy with Mist and Fog 50 10 48 8.9 93 93 NNE 6 9 29.59 1002 1 1 0.00 0.00
5:02 pm 17:02 Cloudy with Mist and Fog 50 10 48 8.9 93 93 NNE 5 7 29.59 1002 2 3 0.00 0.00
5:04 pm 17:04 Cloudy with Mist and Fog 50 10 49 9.4 96 96 N 7 11 29.59 1002 2 2 0.00 0.00
5:27 pm 17:27 Cloudy with Mist and Fog 50 10 48 8.9 93 93 N 8 13 29.62 1003 3 4 0.00 0.00
5:43 pm 17:43 Cloudy 50 10 48 8.9 93 93 N 6 9 29.62 1003 8 13 0.00 0.00
5:53 pm 17:53 Cloudy with Mist and Fog 50 10 48 9 94 94 N 6 9 29.62 1003 6 10 0.00 0.00
5:59 pm 17:59 Cloudy with Mist and Fog 50 10 48 8.9 93 93 N 7 11 29.62 1003 6 10 0.00 0.00
6:24 pm 18:24 Cloudy with Mist and Fog 50 10 48 8.9 93 93 N 6 9 29.62 1003 6 10 0.00 0.00
6:47 pm 18:47 Cloudy with Mist and Fog 50 10 48 8.9 93 93 NNW 6 9 29.62 1003 4 6 0.00 0.00
6:59 pm 18:59 Cloudy with Mist and Fog 50 10 48 8.9 93 93 N 5 7 29.62 1003 4 6 0.00 0.00
7:06 pm 19:06 Cloudy with Light Rain 50 10 48 8.9 93 93 NNW 5 7 29.62 1003 2 3 0.00 0.03
7:59 pm 19:59 Cloudy with Light Rain 50 10 48 8.9 93 93 N 6 9 29.58 1002 2 3 0.00 0.03
8:15 pm 20:15 Cloudy with Light Rain 50 10 48 8.9 93 93 N 5 7 29.59 1002 3 5 0.01 0.25
8:59 pm 20:59 Cloudy with Drizzle 50 10 48 8.9 93 93 N 10 17 29.57 1002 3 5 0.01 0.25
9:59 pm 21:59 Cloudy with Drizzle 49 9.4 48 8.9 97 97 NNE 8 13 29.57 1001 4 6 0.00 0.03
10:13 pm 22:13 Cloudy with Drizzle 49 9.4 47 8.3 93 93 NNE 6 9 29.56 1001 2 3 0.00 0.03
10:21 pm 22:21 Cloudy with Drizzle 49 9.4 48 8.9 97 97 NE 5 7 29.56 1001 0 0 0.00 0.03
10:30 pm 22:30 Cloudy with Drizzle 49 9.4 48 8.9 97 97 NNE 3 6 29.56 1001 0 0 0.00 0.03
10:59 pm 22:59 Mostly Cloudy with Drizzle 48 8.9 46 7.8 93 93 NNE 9 15 29.55 1001 0 0 0.00 0.03
11:59 pm 23:59 Mostly Cloudy with Drizzle 48 8.9 46 7.8 93 93 N 8 13 29.55 1001 0 0 0.00 0.03

Powered by AerisWeather